Theta_e
320 320 320 320 320 320 320 320 320 320 320 320 320 320 320 320 320 320 320 320 320 320 320 320 320 320 320 320 320 321 320 316 314 313 313 314 326 330 343 345 346 346 343 330 317 316 315 316 317 321 321 322 325 327 343 346 343 334 320 319 316 320 319 325 324 327 328 325 327 329 330 328 325 333 334 335 330 329 329 329 331 334 335 337 338 342 344 345
320 320 320 320 320 319 320 320 320 320 320 320 320 320 320 320 320 320 320 320 320 320 320 319 320 320 319 320 321 321 318 314 312 313 313 325 335 335 339 340 346 352 342 316 309 312 314 313 316 319 318 318 328 328 344 337 347 327 322 318 315 321 327 333 332 330 327 329 331 330 332 330 328 329 333 326 324 325 324 326 330 330 333 336 338 341 342 342
320 320 320 320 319 319 319 320 320 319 319 319 320 319 319 319 319 319 319 319 319 319 320 320 320 320 320 320 321 321 317 313 313 312 318 340 336 342 341 344 348 351 323 310 310 313 316 315 317 317 317 317 325 333 342 335 340 336 323 316 321 332 333 335 336 331 329 334 330 330 331 331 332 331 333 325 322 324 321 323 327 328 329 332 335 339 340 341
320 320 320 320 319 319 319 319 319 319 319 319 319 319 319 319 319 319 319 319 319 319 319 319 319 320 320 321 321 319 315 312 311 319 324 350 345 340 343 346 350 348 316 311 311 313 316 315 317 317 318 317 321 338 333 336 332 334 325 320 325 335 331 335 338 336 335 337 331 327 330 330 334 334 331 327 320 320 323 328 328 327 329 331 333 337 338 338
320 320 320 320 319 319 319 319 319 319 319 319 319 319 319 319 319 319 318 318 319 319 319 319 319 320 320 321 321 318 311 304 313 321 327 352 350 345 342 347 351 337 313 311 311 310 311 310 310 313 316 314 321 331 331 337 336 334 328 331 333 336 331 337 337 340 336 337 332 331 329 329 337 333 332 326 318 317 324 329 331 332 332 332 332 334 337 336
319 319 319 319 319 319 319 319 319 319 319 319 319 319 318 318 318 318 318 318 318 318 319 319 320 320 321 321 318 315 308 294 312 317 360 353 351 346 344 347 353 321 312 309 307 309 309 309 309 308 311 314 325 324 333 337 339 322 330 332 332 335 333 340 338 339 337 334 332 330 335 335 330 330 332 334 326 325 332 332 333 333 334 334 334 334 334 334
319 319 319 319 319 318 319 318 318 318 318 318 318 318 318 318 318 318 318 317 317 317 319 319 320 320 320 321 316 314 309 307 315 318 346 355 351 347 347 348 350 312 309 305 306 306 307 307 310 310 312 312 323 328 335 335 338 329 325 333 333 338 335 339 336 339 337 331 329 336 335 331 330 325 335 332 330 330 332 334 334 334 335 335 333 334 334 334
319 319 319 319 318 318 318 318 318 318 318 318 318 318 318 318 318 318 318 318 317 318 318 319 320 320 321 315 314 308 309 309 318 323 356 350 347 347 345 335 328 308 306 304 304 305 307 307 308 314 313 309 313 331 336 332 334 328 326 331 333 336 337 339 340 340 337 334 341 337 330 331 331 330 332 328 328 331 332 334 334 334 334 334 333 333 334 334
319 319 318 318 318 318 318 318 318 318 318 317 317 317 317 317 317 317 317 317 318 318 319 319 320 321 321 315 311 305 305 318 325 340 345 336 335 333 323 317 315 310 307 305 306 306 308 308 311 315 309 311 325 331 335 330 324 334 330 332 335 334 336 339 338 339 339 340 340 336 331 327 333 335 329 326 329 332 333 333 333 333 332 332 333 334 333 333
318 318 318 318 318 318 318 318 318 318 318 317 317 317 317 317 317 317 317 317 317 318 319 320 320 320 316 313 311 298 309 324 332 342 336 334 331 320 315 315 313 310 306 305 306 306 307 311 315 321 319 315 330 331 335 329 324 337 335 335 333 333 335 338 337 337 341 340 341 329 329 329 334 329 319 328 330 332 332 331 332 332 331 332 333 333 334 333
318 318 318 318 318 318 318 318 318 318 317 317 316 316 316 316 316 316 317 318 318 319 319 320 320 319 314 315 304 297 317 318 330 331 331 332 325 316 314 314 312 309 307 306 306 308 310 311 313 315 316 311 331 331 332 331 337 336 336 335 333 331 333 336 337 338 341 334 341 337 334 332 333 329 321 326 330 332 329 330 330 331 331 331 332 332 333 333
318 318 318 318 317 317 318 318 317 317 317 316 316 315 316 316 316 317 317 317 318 319 319 320 321 317 314 312 305 302 318 320 325 328 331 327 320 318 317 314 312 308 307 306 308 311 312 313 314 314 308 316 321 331 329 338 337 335 336 327 329 329 328 333 335 337 341 336 341 338 330 323 326 321 326 328 330 330 329 328 329 330 330 331 332 332 331 332
318 318 318 317 317 317 318 317 317 317 316 315 315 315 316 316 316 317 318 317 318 319 320 321 321 317 314 303 309 316 315 316 315 323 329 325 321 320 318 312 313 308 308 308 309 313 314 314 316 313 317 314 323 321 336 339 335 332 329 328 326 323 322 331 337 336 337 336 342 338 312 314 322 329 327 329 329 328 327 327 328 329 329 330 330 331 330 331
318 318 318 317 317 317 317 317 317 316 316 315 315 314 315 315 316 317 318 318 319 320 321 322 319 317 313 307 316 322 321 320 320 317 323 323 314 312 312 310 311 309 310 308 310 311 313 314 317 317 319 314 327 340 335 334 332 320 324 326 320 319 317 330 333 334 332 337 340 339 311 314 322 324 327 328 328 326 324 325 327 327 328 328 329 328 328 328
318 318 318 317 317 317 317 317 316 315 315 315 314 314 314 314 317 319 320 319 320 320 321 322 319 314 309 313 324 327 345 338 323 321 314 316 313 312 310 309 308 308 309 309 309 311 313 313 313 311 309 327 336 330 323 324 325 324 318 312 317 317 319 324 333 333 328 334 337 333 313 316 321 323 329 331 327 326 323 324 325 326 326 327 326 326 326 327
318 318 318 317 317 317 317 316 315 315 315 314 313 313 315 316 318 320 321 321 322 320 320 316 316 315 311 305 315 334 321 309 309 318 315 312 316 312 313 310 309 309 309 308 311 312 312 314 310 310 311 319 320 320 319 316 318 323 317 313 313 317 318 320 328 333 333 332 333 330 315 320 320 325 327 329 326 324 323 323 324 325 325 325 325 326 326 326
318 318 317 317 317 317 317 316 315 315 314 314 314 314 315 317 319 321 322 323 321 321 318 315 319 317 303 318 325 315 314 314 312 312 311 310 315 315 312 308 307 307 309 310 311 311 311 312 312 312 310 302 306 321 313 308 309 314 320 314 317 313 318 315 325 330 331 332 326 330 323 321 322 324 326 328 326 323 322 322 323 324 324 324 325 326 325 325
317 317 317 317 316 316 316 315 315 314 314 313 313 313 312 316 318 318 319 322 322 320 317 320 317 312 307 319 307 309 317 314 309 311 309 311 315 315 311 307 308 307 308 307 310 308 312 307 308 299 304 303 304 311 308 304 309 309 311 312 313 316 319 318 318 325 330 330 326 325 324 326 324 324 325 327 329 323 321 322 323 323 323 324 325 325 325 325
317 317 317 316 316 316 315 315 315 314 314 314 314 317 318 317 314 316 316 318 314 312 304 311 309 297 297 304 312 316 315 315 317 316 314 314 317 315 315 312 311 307 305 304 304 308 309 304 306 301 298 298 299 304 309 313 316 314 313 313 315 313 315 317 325 330 329 324 321 323 319 322 322 322 324 329 329 322 321 323 323 323 323 323 324 325 324 325
317 317 317 316 315 315 315 315 314 313 313 310 308 313 313 306 306 310 316 317 312 310 308 310 313 312 313 313 313 315 319 317 312 314 314 316 317 313 311 311 309 308 304 300 303 307 308 299 295 296 298 300 303 305 309 320 320 319 319 318 316 316 319 325 326 329 335 326 322 323 325 321 321 322 328 331 326 322 321 321 321 322 322 323 324 325 324 325
317 316 316 316 315 315 315 314 313 313 312 309 308 309 301 301 300 300 306 311 315 316 313 313 315 313 311 314 315 313 310 309 311 311 312 317 313 309 306 307 303 299 301 305 304 308 308 298 297 300 302 303 304 306 309 322 322 318 318 317 316 317 315 322 323 329 332 324 322 326 321 320 324 325 331 333 326 320 321 320 320 321 322 323 324 324 323 326
316 316 316 315 314 314 314 313 313 313 311 309 311 308 307 307 310 312 307 302 310 314 315 315 317 315 318 317 320 316 311 307 306 306 313 314 311 304 303 303 300 296 300 303 304 303 299 297 300 303 305 305 305 305 315 322 320 320 317 316 315 316 320 322 322 328 328 327 321 325 318 320 321 323 331 329 328 322 322 322 322 322 322 322 324 324 324 325
316 316 315 315 314 313 313 313 312 311 309 309 311 310 309 312 315 317 313 306 305 313 311 312 311 314 315 318 314 312 306 304 301 306 311 311 307 305 303 300 299 300 301 302 297 297 295 297 302 306 305 304 304 304 313 322 321 318 316 314 312 317 315 310 320 323 324 324 321 323 319 320 322 329 330 331 331 330 331 327 323 324 322 323 323 324 324 324
316 316 315 315 314 313 313 311 310 309 307 310 309 310 315 316 315 314 309 302 302 309 312 313 313 313 313 311 310 309 305 306 306 306 315 310 304 305 303 301 299 299 297 300 299 296 297 302 306 305 304 304 302 302 309 316 314 318 318 315 315 316 317 317 316 320 325 324 326 321 317 316 318 319 324 329 334 333 332 330 324 324 325 326 326 325 326 326
316 316 315 315 313 313 310 310 306 309 311 309 308 313 315 315 315 315 307 302 304 304 315 313 314 313 311 316 314 306 307 308 308 313 314 310 306 304 301 305 300 296 298 300 300 298 298 304 305 302 302 302 301 299 310 315 312 314 319 319 319 320 318 318 319 319 316 313 321 319 306 308 316 319 322 324 328 326 331 324 323 323 324 324 324 324 327 328
316 315 315 314 314 312 310 308 313 313 312 309 311 313 314 316 317 315 307 299 295 303 306 300 310 304 316 308 309 306 307 302 309 312 313 312 319 308 308 301 302 294 298 297 298 297 299 304 303 301 301 300 300 298 313 317 310 312 314 323 322 322 319 318 318 317 309 306 316 324 307 303 315 316 319 323 326 327 328 324 324 324 324 323 323 325 327 328
315 315 315 314 313 310 306 310 312 312 305 308 312 314 316 317 323 315 304 296 293 303 301 306 307 306 313 308 308 310 295 301 314 314 313 319 310 314 304 300 303 303 304 303 298 293 302 300 300 301 301 299 297 295 307 315 309 304 319 324 324 321 318 318 319 317 313 320 321 322 317 306 306 313 321 324 323 325 324 324 324 327 327 323 324 326 327 328
315 315 313 312 311 309 309 309 310 307 307 311 314 318 318 319 319 311 301 288 286 301 302 303 308 314 312 308 309 305 306 311 304 309 314 314 312 310 305 301 301 300 303 301 289 296 298 298 298 298 299 297 296 299 308 316 312 314 324 326 322 322 320 320 317 315 316 315 307 314 320 307 306 315 322 323 317 321 322 322 323 325 327 324 326 327 327 328
314 314 313 312 310 309 310 309 310 308 312 315 318 319 320 320 312 302 293 286 300 300 311 304 316 311 309 309 306 307 310 311 303 308 311 313 312 307 300 303 303 301 302 301 296 298 301 301 301 300 298 295 300 310 317 323 319 324 326 326 324 322 320 318 314 313 311 308 304 310 315 304 305 315 315 320 319 319 321 323 324 325 326 327 327 327 328 329
314 313 312 311 308 308 308 310 307 313 316 317 318 318 319 312 303 296 291 286 308 293 304 306 304 302 306 300 301 305 305 309 310 310 309 305 307 309 307 308 304 301 300 303 300 301 304 309 309 302 299 301 308 319 324 325 325 326 324 319 317 316 314 315 313 312 308 301 304 313 315 311 301 311 315 313 315 321 323 324 325 326 327 328 328 327 328 329
312 311 310 310 304 314 313 310 314 316 317 317 318 316 311 305 299 289 286 293 301 298 305 304 301 306 301 298 295 303 307 308 308 309 302 306 301 306 304 300 305 299 297 297 298 301 302 302 301 304 309 310 322 323 328 328 326 324 318 314 313 310 311 307 306 308 299 297 308 314 313 315 301 306 317 321 324 326 325 324 323 325 326 327 328 328 328 330
310 309 310 307 309 312 309 308 314 316 318 320 315 310 303 293 296 288 290 310 293 296 297 297 302 302 302 302 303 302 302 305 307 309 300 297 297 297 297 293 297 293 290 291 292 296 296 297 300 306 318 322 322 321 322 324 324 320 316 312 305 299 299 295 300 298 297 297 309 315 315 309 307 314 321 323 323 323 328 328 326 326 327 327 328 329 330 331
309 308 308 309 310 308 311 315 316 318 319 314 310 306 299 291 286 293 295 299 292 298 296 303 300 301 302 301 303 304 306 303 307 305 305 301 298 297 299 299 299 297 290 294 293 292 291 298 301 304 308 323 324 315 313 312 315 315 312 307 301 294 292 289 294 299 299 308 314 313 317 307 314 319 325 324 327 328 329 331 329 328 327 328 329 329 331 331
308 308 305 308 309 311 314 318 319 319 316 313 307 304 299 290 291 318 301 296 295 301 301 301 301 301 300 294 301 304 298 305 305 303 304 301 297 295 296 299 300 298 297 295 292 290 288 289 294 304 299 317 320 319 317 314 315 314 316 309 303 301 295 289 293 292 296 300 307 314 308 304 305 310 327 327 330 332 333 334 330 330 332 332 333 331 331 331
308 307 307 310 310 311 311 314 316 318 315 306 303 298 293 290 295 294 294 293 296 300 299 302 300 298 299 302 304 304 303 300 306 304 302 299 294 295 295 295 300 301 299 291 297 297 293 291 297 305 304 310 313 317 320 317 314 315 314 312 306 303 305 297 300 300 302 301 303 306 305 312 313 325 331 334 333 332 334 333 332 331 329 329 330 331 330 331
308 311 310 312 314 317 314 314 315 316 309 303 299 294 293 297 295 298 295 299 300 297 298 299 298 294 294 296 302 303 305 300 301 303 303 302 300 299 303 302 302 304 303 295 300 292 295 291 300 304 306 307 309 312 312 319 302 309 310 303 306 313 310 304 307 310 309 304 300 309 309 314 325 325 327 330 328 328 331 331 331 329 330 329 329 330 330 331
314 317 314 316 318 322 318 317 318 315 308 303 298 293 297 302 304 303 310 300 299 299 296 291 293 293 292 294 295 299 299 303 302 301 298 303 297 301 300 302 307 308 308 300 297 298 292 294 301 302 301 305 309 310 309 314 305 305 303 307 315 315 312 305 297 302 302 297 300 307 305 307 307 303 324 327 324 326 327 329 329 328 328 328 328 329 331 331
312 317 321 319 319 320 320 320 318 311 307 303 296 310 307 301 307 305 307 301 300 299 294 295 295 298 295 294 293 299 299 296 299 304 303 302 294 303 302 300 305 306 306 307 298 301 298 290 296 301 303 306 312 307 306 307 309 307 307 314 307 300 299 304 303 295 295 295 297 304 308 308 309 308 319 321 323 324 325 328 327 326 327 327 327 329 332 332
313 313 306 312 317 322 321 321 314 309 303 299 297 298 309 305 308 307 306 302 302 299 294 298 295 297 297 294 298 299 300 294 299 298 298 301 294 303 302 303 301 305 306 306 301 301 302 294 294 300 302 306 307 306 298 298 303 305 308 311 311 304 300 300 301 303 301 296 296 296 304 299 312 313 320 320 324 325 325 326 325 326 327 328 328 329 331 332
311 305 303 312 317 322 323 318 311 306 301 296 296 299 304 303 306 303 301 301 299 295 298 297 300 296 296 297 300 295 299 298 297 299 299 302 300 305 302 305 302 305 306 309 304 304 297 302 291 297 303 304 297 299 298 298 295 297 295 298 307 305 310 305 306 303 299 297 295 294 294 301 308 318 322 322 325 327 327 326 326 327 328 329 330 330 331 333
315 305 305 317 320 322 321 314 305 301 299 298 301 302 304 302 302 301 303 303 301 304 299 299 298 296 299 296 295 300 298 297 297 296 300 301 300 295 309 305 305 302 304 305 303 304 301 299 293 295 293 293 294 299 301 302 299 296 295 295 299 299 301 297 295 303 306 299 293 295 294 301 315 326 325 325 327 329 330 329 327 329 330 330 331 331 332 332
306 298 302 315 317 320 313 302 301 301 299 297 297 302 302 314 302 300 302 302 304 300 305 302 301 300 298 299 298 297 297 296 298 297 300 301 304 301 303 304 304 305 300 298 298 306 307 304 299 293 296 297 300 304 303 305 303 300 300 297 298 298 301 294 289 295 302 305 308 303 299 302 318 326 326 327 328 330 330 332 331 332 332 332 333 336 337 334
305 304 314 317 317 314 305 299 307 306 299 300 306 305 307 306 301 301 300 301 300 301 301 301 301 300 302 300 300 298 299 296 299 295 298 299 300 304 304 304 305 305 300 298 303 303 318 299 295 296 297 300 305 305 303 303 303 300 300 300 298 297 302 300 294 298 300 304 301 299 298 304 319 327 327 328 329 331 332 330 330 332 333 333 333 334 334 336
304 305 308 315 317 314 305 297 296 297 299 304 304 304 306 303 301 300 300 300 300 299 299 300 301 302 301 304 301 299 301 294 299 299 298 300 299 304 303 304 305 301 300 298 299 306 297 298 295 290 288 292 296 299 300 303 301 295 295 295 298 298 301 303 303 302 299 302 304 298 293 298 315 329 327 328 328 329 330 332 332 331 332 333 333 333 334 338
307 311 309 312 318 310 301 300 297 295 299 301 301 301 302 303 303 302 301 299 300 300 299 299 302 301 301 302 301 302 300 299 297 299 300 299 299 304 303 304 307 302 307 306 325 313 300 300 294 288 286 285 286 286 289 292 296 300 301 299 299 298 297 298 298 298 291 300 303 298 297 304 316 324 323 325 326 326 328 329 332 333 331 331 333 333 334 337
303 297 303 305 309 309 305 305 302 300 296 298 298 300 303 298 300 302 300 300 300 301 299 301 301 300 300 300 299 299 299 302 299 298 298 298 299 302 303 303 304 306 321 324 321 309 302 303 298 293 292 288 291 293 299 305 299 296 301 309 308 306 299 298 297 295 291 299 301 301 303 308 315 319 320 322 324 324 325 327 329 330 331 331 333 333 332 335
310 300 301 302 311 305 307 307 301 300 297 301 295 301 299 300 300 300 303 297 301 300 303 301 301 299 299 299 298 299 300 300 302 301 300 300 301 301 304 304 303 317 328 315 317 304 303 296 300 299 300 298 298 299 302 303 299 303 309 309 311 311 309 303 295 292 298 301 295 305 310 313 314 318 319 321 323 324 326 328 329 329 331 331 332 334 338 339
300 305 313 315 304 296 306 305 310 309 309 304 299 303 299 299 299 299 301 301 300 300 297 300 301 300 300 300 300 298 300 301 301 300 303 304 301 302 301 304 303 310 311 304 308 304 301 297 299 299 301 299 301 303 305 305 309 309 311 311 311 312 312 310 310 308 305 300 295 308 314 312 315 319 321 322 323 324 326 327 329 331 333 333 333 334 336 336
313 312 311 318 309 311 312 313 315 310 305 304 300 304 300 299 297 300 299 300 301 300 300 296 298 300 301 302 299 299 300 293 295 302 302 300 301 300 298 300 303 304 303 301 304 305 299 296 303 299 300 301 302 306 307 308 309 310 310 311 312 312 311 312 313 315 315 311 314 314 313 313 316 320 324 326 329 328 327 329 330 330 331 333 333 333 335 335
308 309 307 315 315 313 314 313 312 306 300 305 298 300 301 300 298 299 300 298 298 299 300 296 299 300 300 300 301 298 302 299 299 300 305 301 296 300 301 302 298 301 301 301 303 303 297 296 307 300 296 299 302 306 309 309 309 308 310 312 313 313 313 313 313 314 315 314 315 314 313 312 318 322 324 326 328 329 327 326 327 327 329 330 330 332 333 333
312 316 316 311 309 310 314 312 307 302 299 299 297 299 302 301 302 302 301 304 299 298 299 297 299 299 300 300 299 298 301 306 305 304 303 303 296 300 299 299 302 300 300 299 302 302 300 295 300 298 293 296 301 301 305 308 307 305 304 307 311 311 310 312 311 314 312 310 312 314 311 312 319 324 325 325 324 323 323 324 325 326 329 329 327 327 330 331
313 317 319 314 307 314 310 311 308 301 296 299 301 301 301 300 304 303 299 303 304 300 300 300 298 299 299 299 299 301 301 301 300 301 301 299 299 300 301 302 301 301 299 301 302 297 299 297 294 296 292 294 300 302 301 302 301 298 299 301 309 312 313 314 315 317 315 316 312 310 311 319 321 324 322 323 324 324 323 324 324 327 329 329 327 328 330 332
Wind_Speed
12 12 12 12 12 13 12 12 13 12 12 12 12 12 11 11 11 11 10 10 10 10 10 11 11 11 11 12 12 12 11 7 8 3 5 13 9 13 8 7 6 13 14 3 1 1 3 3 5 4 3 3 4 7 4 2 3 2 2 2 2 0 1 2 3 3 3 4 5 3 5 1 4 2 3 0 7 11 10 12 8 12 8 11 14 16 16 15
13 12 12 12 12 12 13 13 13 13 13 13 12 12 11 11 11 11 11 10 10 10 10 10 11 11 12 11 12 12 9 6 8 8 18 8 12 13 14 14 9 9 11 4 5 5 4 5 6 5 4 4 3 3 7 1 1 2 2 2 3 4 3 4 3 3 4 3 4 6 5 4 4 5 7 5 8 12 11 10 14 13 14 13 16 18 16 16
12 12 12 13 13 12 13 13 13 13 13 13 13 13 12 12 11 11 10 10 10 9 10 10 10 11 11 11 10 10 8 5 5 8 13 17 15 13 13 12 8 12 12 5 5 6 7 7 5 5 4 3 3 3 3 2 2 2 4 1 4 2 3 4 5 6 7 2 5 4 3 2 2 4 7 5 13 14 14 14 15 17 17 16 19 19 17 15
13 13 13 13 13 12 12 13 13 13 13 13 13 13 13 13 12 11 11 10 10 10 10 10 10 10 11 11 11 6 4 4 1 2 5 5 17 17 13 12 7 12 6 1 3 3 1 4 3 3 1 5 4 7 4 4 2 2 6 1 4 1 2 3 5 7 6 3 8 3 1 4 3 5 4 7 14 11 12 15 21 20 20 16 20 20 17 16
13 13 14 14 13 13 13 13 13 14 13 13 12 13 13 12 12 11 11 10 10 9 9 9 10 11 11 9 11 4 3 1 2 2 3 2 13 17 16 11 10 7 6 2 0 2 2 2 2 2 4 4 5 6 3 5 2 5 4 8 2 1 0 3 4 8 6 4 7 6 8 7 4 3 5 9 13 11 12 15 18 22 18 18 19 19 18 16
14 14 14 15 14 14 14 14 13 13 13 13 13 12 12 12 11 11 10 10 9 9 9 9 10 10 11 10 6 3 0 2 2 2 4 4 10 16 16 13 11 6 4 1 3 1 2 2 3 2 3 5 4 7 3 3 4 2 2 3 3 4 1 3 3 3 7 5 4 7 1 3 4 3 0 2 4 6 13 18 19 17 17 17 15 15 17 16
15 15 14 15 15 14 15 15 14 13 13 13 13 13 13 12 11 11 11 9 8 8 9 9 9 10 10 10 2 2 1 7 5 8 4 5 11 16 16 12 10 5 5 3 3 3 5 3 3 5 3 3 5 5 7 7 2 5 1 3 4 0 2 3 6 4 4 8 5 2 2 2 3 4 1 1 9 15 16 18 17 17 16 16 14 14 15 13
15 15 15 15 15 15 15 15 14 13 13 13 12 12 12 12 12 11 10 10 9 8 8 8 8 8 9 4 0 1 0 7 12 4 8 7 8 12 14 6 7 5 5 7 7 7 3 6 8 2 4 3 3 7 7 7 5 3 2 4 1 1 1 4 6 7 6 5 1 3 5 1 5 1 2 1 16 19 18 18 17 16 16 13 13 14 13 13
15 15 15 15 15 16 16 15 14 14 13 13 13 12 12 11 11 10 10 9 9 8 7 7 8 7 6 1 1 4 5 7 5 7 9 9 8 8 10 6 5 7 4 4 6 4 3 5 5 4 2 4 3 9 8 8 3 3 6 7 4 2 4 5 4 5 5 3 1 1 3 6 3 3 1 11 16 18 19 18 18 17 15 14 14 15 13 12
15 15 15 16 16 16 16 15 15 15 14 13 13 13 13 12 12 11 10 8 8 7 7 6 6 6 3 0 0 2 2 3 4 9 9 9 9 8 7 3 9 7 4 7 4 6 8 6 6 1 5 4 4 5 9 7 4 7 7 7 6 3 0 1 4 3 3 2 4 3 7 9 6 6 6 12 16 18 18 18 17 17 15 14 13 13 12 12
16 16 16 16 16 16 16 15 14 14 14 13 14 13 13 12 11 10 10 9 8 7 6 6 5 4 1 0 1 4 7 3 2 5 8 9 11 9 10 7 9 8 7 4 10 11 10 7 5 5 4 2 3 7 5 1 9 9 11 9 8 7 5 3 5 3 2 1 1 1 4 4 6 2 8 13 17 19 19 17 16 14 13 13 14 12 10 11
16 16 16 16 16 17 17 16 15 14 14 14 14 14 13 12 11 11 10 8 8 7 5 5 4 2 1 1 4 9 4 3 4 2 6 11 9 12 10 8 10 10 9 8 10 10 8 9 5 2 3 3 3 4 3 8 7 11 6 5 4 7 2 3 2 2 0 1 4 1 1 6 4 5 10 15 16 18 19 17 15 14 12 12 13 11 7 10
16 17 17 17 17 17 16 16 16 15 15 14 15 15 14 13 12 11 10 8 5 5 4 3 2 2 1 4 10 11 9 11 2 4 5 5 2 5 9 8 11 8 8 6 7 10 10 6 3 6 4 1 5 1 4 8 8 7 12 3 4 4 1 2 3 2 1 1 3 2 7 4 3 3 11 14 16 16 17 16 14 12 12 11 11 10 8 8
17 17 17 17 17 17 17 17 16 16 16 16 15 16 15 13 12 11 8 6 6 7 7 5 2 1 1 6 6 3 8 6 7 5 10 7 3 3 6 6 10 8 7 7 7 4 5 4 5 8 6 3 1 8 6 3 5 6 2 4 1 4 3 3 3 3 1 3 4 2 6 3 2 9 10 15 18 18 16 15 15 12 11 11 10 9 7 8
17 17 17 17 17 17 17 17 16 16 17 16 17 17 16 14 12 11 8 5 6 6 3 3 1 0 1 8 7 11 15 7 5 9 8 11 6 1 4 5 7 9 8 9 4 4 6 7 5 4 2 4 9 7 4 4 4 2 2 1 4 1 1 4 4 4 3 1 5 2 5 3 6 10 3 9 14 17 16 15 14 12 11 11 8 8 7 8
16 16 17 18 18 18 17 15 16 15 16 18 17 19 17 13 8 9 7 6 4 2 0 1 3 1 0 8 5 10 6 1 5 10 8 5 7 5 8 8 6 7 7 6 8 6 4 4 5 5 4 9 7 7 5 5 3 2 3 1 3 1 4 3 2 2 1 0 3 3 6 6 3 10 14 12 10 15 14 13 13 13 13 10 8 7 8 8
15 15 15 17 18 18 18 15 16 16 17 18 19 17 12 10 7 7 6 3 2 2 2 0 2 3 2 4 5 4 2 5 4 0 1 4 6 5 6 4 3 5 5 8 6 4 5 3 2 2 2 2 6 6 6 2 2 0 1 2 4 2 5 4 2 4 1 2 1 3 3 2 6 13 15 11 11 14 12 13 14 13 11 8 9 8 8 7
15 15 15 16 18 18 18 15 16 17 15 17 18 14 8 5 2 7 3 3 2 3 3 4 3 2 6 2 2 4 3 2 4 4 5 4 7 4 7 5 3 6 4 4 5 4 2 2 0 4 0 3 6 5 6 6 8 7 3 2 1 4 7 3 8 7 4 2 4 1 3 2 6 13 15 8 6 13 12 14 14 13 10 8 9 8 8 8
18 17 16 15 16 18 17 16 15 15 18 20 19 9 2 6 2 1 0 2 1 1 1 0 1 1 3 6 6 7 4 8 2 5 1 5 3 3 4 4 4 4 2 2 4 3 2 1 1 1 3 3 5 8 7 7 8 10 11 6 7 8 8 5 3 4 7 6 5 2 6 3 2 12 10 5 4 13 12 13 13 12 9 8 8 9 7 8
20 19 16 15 14 17 17 17 13 12 16 12 8 1 1 2 2 1 2 1 4 7 9 5 8 5 7 10 9 6 2 4 3 2 1 1 1 1 1 5 2 3 3 5 2 3 2 4 6 7 7 7 5 8 9 5 9 8 5 5 8 6 3 2 2 4 3 5 5 5 5 5 10 5 1 5 3 10 13 14 12 12 10 9 9 10 7 8
18 17 17 15 14 14 18 15 12 10 11 5 6 2 1 1 1 4 4 7 8 9 8 7 12 9 8 5 3 6 1 2 2 2 3 2 2 4 1 4 2 4 3 6 4 1 2 4 7 8 9 9 9 10 7 6 8 11 7 7 5 5 5 0 3 4 2 3 4 4 8 6 4 2 6 8 2 11 15 15 13 13 11 9 11 12 7 8
18 18 17 15 14 14 15 12 10 8 8 3 1 1 3 4 4 1 3 6 11 9 10 13 5 8 7 11 12 8 2 1 2 5 3 3 1 4 1 2 2 5 4 2 2 0 2 7 9 12 10 8 11 3 5 9 10 8 8 6 7 1 5 6 3 3 1 1 4 6 8 5 5 9 7 7 5 4 10 15 15 15 12 10 12 13 8 6
21 18 17 16 14 15 14 13 9 9 3 1 0 1 4 6 1 1 2 4 10 8 4 7 5 9 9 8 5 7 3 1 4 3 2 3 2 4 3 3 3 3 3 3 5 2 4 7 13 12 8 9 9 5 4 9 9 8 5 7 6 7 7 3 4 1 1 2 4 6 8 0 0 3 7 4 7 1 3 7 13 14 13 14 13 12 10 8
21 21 18 16 16 16 17 13 11 1 3 4 3 7 7 5 6 3 3 2 4 9 3 5 6 4 6 4 3 5 4 2 2 5 3 5 6 3 2 5 7 3 5 4 6 7 10 13 11 9 8 10 10 7 8 7 6 7 11 5 6 10 7 3 8 5 5 5 4 9 6 2 7 6 3 6 8 0 3 5 9 9 11 15 12 12 10 11
21 20 19 17 17 19 18 16 1 2 3 3 6 9 10 10 6 2 1 3 2 6 4 3 4 3 4 1 0 2 1 1 3 3 4 5 4 3 3 2 2 6 6 7 6 8 12 14 2 6 9 9 9 5 11 9 8 6 7 10 12 13 8 11 15 11 4 3 4 10 5 7 8 9 4 3 8 1 1 7 10 8 5 13 13 12 11 11
19 18 18 15 17 20 18 4 1 4 6 6 7 5 3 8 1 5 3 1 4 5 2 2 1 1 0 2 2 3 3 1 3 4 4 6 4 3 0 2 3 6 9 4 6 4 10 6 6 9 11 9 7 5 10 13 8 8 7 8 11 10 11 14 14 8 7 8 9 3 7 2 3 10 6 4 5 1 1 4 9 8 6 12 12 10 12 12
19 17 16 14 14 15 5 2 3 7 4 4 3 6 8 5 0 3 3 2 1 2 1 1 1 1 1 3 2 2 1 3 3 2 7 4 3 1 2 6 3 2 2 2 1 5 4 5 7 9 11 9 6 7 7 11 8 4 5 13 12 12 13 12 11 4 3 5 6 1 2 4 4 9 6 6 6 2 3 4 7 4 6 12 11 11 14 13
20 17 14 13 9 6 2 5 8 3 6 6 5 9 9 7 6 3 2 1 1 3 0 1 1 1 0 4 5 1 4 0 1 2 3 4 4 0 4 3 3 5 3 2 6 9 4 5 6 9 10 7 8 8 9 10 5 3 12 16 13 12 11 8 4 4 3 8 5 5 0 2 3 2 4 5 8 6 6 7 9 5 4 9 10 11 15 14
18 15 14 10 10 6 4 2 1 5 4 4 9 10 8 8 1 3 2 2 1 1 2 1 1 0 1 1 3 2 1 0 2 4 2 1 2 3 3 4 3 4 4 5 8 5 4 6 9 9 8 9 7 3 12 14 10 7 17 15 13 11 7 6 4 5 2 2 6 8 5 5 1 3 5 6 7 9 8 8 9 6 6 7 8 11 14 12
17 15 12 8 6 2 1 2 7 10 7 9 10 12 7 2 3 3 2 2 0 2 1 1 1 3 3 4 1 2 1 1 3 1 1 3 1 1 1 3 2 3 7 3 5 9 11 9 5 4 7 9 5 8 10 13 16 16 19 15 11 8 6 4 4 3 4 1 2 6 8 4 4 7 9 11 9 8 7 5 4 3 4 5 6 10 12 11
17 14 10 3 2 1 2 4 10 5 5 5 9 8 2 3 2 2 1 1 1 3 0 1 2 2 5 3 2 1 2 0 1 0 1 3 3 0 2 4 1 2 2 4 7 8 6 6 4 2 8 5 11 11 14 16 20 17 5 10 10 6 4 4 2 2 2 2 1 7 12 7 6 3 8 8 6 7 9 10 8 7 7 6 6 7 13 11
18 14 10 6 4 4 4 6 1 5 8 8 6 4 4 2 3 3 3 1 1 2 1 2 2 4 7 4 3 2 1 1 1 0 1 0 1 1 1 4 2 1 4 2 6 4 3 7 2 5 5 18 13 15 11 13 5 11 13 8 8 2 2 1 2 0 1 3 1 1 7 6 11 3 3 9 9 10 9 9 10 10 9 8 7 6 11 10
19 14 11 10 6 3 9 11 7 8 6 5 4 3 4 4 2 3 3 3 1 1 3 0 3 4 4 4 1 3 2 1 1 3 3 2 2 5 4 6 3 4 3 2 5 3 6 3 2 4 4 10 18 13 8 6 5 14 12 6 6 3 1 2 2 0 0 0 1 1 8 5 2 5 8 10 11 14 14 11 9 9 10 10 8 6 9 10
21 12 4 6 11 11 6 1 1 7 6 4 5 7 5 4 3 4 4 3 3 1 6 0 1 3 4 2 6 6 0 2 3 1 1 0 2 2 5 5 4 3 2 3 2 2 1 3 5 6 4 8 10 16 16 11 11 12 7 6 7 7 6 3 3 4 4 3 1 3 5 3 5 3 3 9 10 8 9 9 8 5 1 4 2 1 8 11
22 4 4 2 5 11 16 8 1 3 2 4 6 4 2 2 3 1 4 3 2 4 2 5 3 3 3 0 3 6 3 1 6 3 5 2 1 1 2 3 3 5 1 3 3 0 4 5 5 7 6 12 13 6 8 13 6 2 2 3 2 6 4 6 5 5 4 3 3 1 3 2 4 2 2 2 5 9 7 5 6 7 11 12 5 2 5 10
9 2 3 2 4 6 8 6 5 3 1 5 4 2 1 2 2 1 3 3 2 2 6 8 5 5 1 2 3 2 4 1 2 5 4 3 2 4 3 2 1 5 2 4 3 2 3 2 4 5 4 9 13 11 7 13 6 6 4 4 5 3 9 6 3 2 4 4 1 2 3 2 2 2 6 4 8 10 9 8 8 8 11 13 11 4 3 8
3 0 2 3 4 3 7 8 8 5 5 4 4 2 4 3 6 2 4 4 5 4 3 4 3 1 1 1 2 1 3 3 3 2 3 4 6 2 3 4 3 2 8 3 3 3 1 7 6 2 3 2 6 9 8 14 7 6 1 7 0 2 4 6 4 1 0 2 1 2 5 1 2 2 3 9 9 11 12 12 10 8 7 10 10 6 4 4
5 2 3 4 6 7 10 10 8 3 3 2 1 5 2 3 3 4 7 5 1 2 3 2 2 3 0 3 1 0 0 3 0 3 2 2 3 2 1 3 4 2 3 1 1 4 2 4 6 6 6 4 3 5 1 5 6 13 12 7 5 2 0 2 5 2 2 1 2 2 4 3 6 4 4 10 13 13 14 12 11 9 8 11 11 9 5 3
3 1 4 7 2 12 10 10 4 5 2 2 2 3 4 5 5 9 7 2 1 2 3 1 2 2 1 0 0 1 1 4 3 4 3 0 1 1 2 1 4 5 7 5 2 3 1 1 7 4 4 4 5 7 2 6 2 2 5 7 3 5 4 4 5 4 5 1 1 2 2 4 6 5 10 11 11 12 14 12 12 11 10 10 12 10 7 5
2 3 3 4 1 11 12 8 5 2 1 0 3 3 2 6 11 4 4 3 2 2 1 2 1 1 3 1 0 1 1 4 4 3 2 2 1 6 0 3 3 10 5 8 4 3 4 1 3 7 4 11 7 6 10 8 6 4 3 2 1 1 2 5 1 4 5 5 2 2 1 5 5 4 9 11 11 12 14 14 12 11 11 12 13 12 9 6
2 1 5 4 4 11 10 6 2 3 2 3 2 5 8 4 3 3 9 10 1 1 1 1 1 1 1 3 5 0 0 1 2 3 2 2 1 3 3 2 2 2 2 7 2 4 2 2 3 5 5 1 2 4 7 9 7 6 7 5 7 2 3 4 3 1 3 5 4 3 4 3 4 3 7 9 10 11 12 13 13 13 13 11 10 9 8 5
1 1 5 3 6 9 11 5 3 2 1 4 4 3 4 7 4 1 3 4 2 0 2 2 1 2 3 1 1 3 1 1 2 3 2 3 6 4 5 1 1 1 4 1 4 2 1 1 2 3 2 5 7 8 4 7 6 6 9 7 7 4 5 4 3 4 3 1 5 3 2 1 2 3 5 6 9 11 14 11 8 7 8 8 7 5 3 2
2 4 7 9 5 2 3 1 1 0 3 5 5 8 9 5 3 0 3 2 3 5 3 3 3 3 1 1 3 1 1 0 1 1 5 6 5 11 7 6 4 1 4 2 1 3 3 3 7 6 6 8 6 4 5 4 4 0 2 1 5 5 6 7 6 6 6 3 3 1 0 2 3 2 4 7 8 9 9 13 13 10 9 9 9 8 4 2
1 3 7 5 2 5 3 4 5 5 5 6 6 6 5 2 0 1 1 2 1 2 2 3 2 1 0 0 1 1 0 1 3 1 0 2 1 4 6 5 5 1 2 1 1 4 3 2 3 4 5 8 9 10 9 8 6 2 4 4 3 3 4 2 2 2 6 7 8 6 3 1 2 1 4 5 7 8 9 9 10 11 8 9 9 9 9 1
4 3 5 7 4 2 5 4 5 3 4 5 5 6 4 1 3 1 1 0 1 1 2 1 1 2 1 0 3 1 4 3 1 2 1 3 1 1 3 4 4 3 0 4 6 3 2 2 3 3 3 4 3 4 4 6 7 6 2 6 6 5 6 3 1 0 4 2 3 3 2 1 2 1 4 5 7 6 6 9 8 9 11 10 9 9 7 1
2 1 4 4 4 2 1 1 1 2 4 4 7 4 1 2 3 3 4 1 2 1 1 1 3 3 2 3 4 6 5 4 5 3 4 4 3 3 3 8 5 1 4 6 3 5 0 1 2 2 1 1 3 5 6 1 3 5 7 12 9 7 2 4 5 4 4 4 3 4 5 6 2 2 4 4 7 8 8 7 8 7 7 8 8 9 9 5
1 1 2 4 6 5 3 3 4 4 4 6 2 1 2 2 1 0 1 1 1 2 1 0 1 1 1 4 2 2 4 4 6 5 4 4 4 3 6 8 6 9 11 5 5 5 2 2 2 2 2 1 4 6 7 6 2 5 5 10 9 7 3 6 5 5 5 8 3 3 3 6 3 3 3 3 3 4 5 6 6 7 8 10 10 10 13 8
2 2 2 1 1 3 6 6 6 8 11 8 3 1 2 4 2 1 2 0 2 3 3 4 1 2 2 3 2 3 4 2 4 3 4 2 3 6 7 8 3 7 6 2 4 4 2 1 6 5 10 10 13 13 16 13 6 5 11 15 14 13 14 8 2 2 3 4 5 6 13 9 5 3 3 3 3 6 8 8 5 3 5 7 10 12 12 9
1 2 2 3 1 1 3 9 11 9 11 6 2 1 1 2 6 1 2 0 2 1 1 0 4 3 4 4 4 0 1 3 3 2 0 3 3 2 3 5 4 6 6 4 3 2 2 3 5 6 5 12 12 14 9 7 11 14 11 12 15 16 14 12 14 14 17 12 11 13 15 14 8 7 9 8 9 10 8 8 10 11 10 5 4 8 11 12
2 2 4 4 2 4 5 3 5 6 5 5 1 2 0 0 2 5 4 2 2 3 3 2 3 3 6 5 3 1 2 4 3 0 1 2 7 2 0 1 4 5 4 3 2 4 3 2 7 7 5 4 5 6 13 13 17 15 13 11 14 17 17 15 13 10 13 13 13 14 15 11 5 4 7 6 7 8 9 10 9 9 9 9 10 7 4 4
3 2 1 3 5 5 3 2 5 5 3 4 1 4 1 1 0 1 1 1 3 2 1 2 0 4 3 9 7 5 3 1 1 2 4 0 2 3 1 3 1 1 4 3 2 3 5 2 3 6 5 3 5 4 9 14 15 16 14 16 14 16 16 13 11 6 6 6 8 14 12 5 4 4 7 9 10 11 9 7 7 7 6 9 9 5 8 7
3 3 3 2 2 3 3 4 5 3 2 3 2 2 0 3 0 2 2 5 2 3 4 3 3 8 4 8 6 2 3 2 4 2 1 3 3 4 3 4 1 1 2 1 0 2 1 2 4 5 4 2 4 8 5 4 10 12 12 11 10 12 11 12 12 15 9 4 13 8 4 2 4 3 8 8 11 9 7 4 5 5 5 5 4 7 8 7
Wind_Direction
356 353 348 344 340 338 334 332 332 330 328 328 328 326 322 322 322 320 321 321 322 323 323 323 321 321 321 318 317 318 324 321 311 296 215 240 190 221 187 213 200 210 204 201 224 123 161 189 201 215 205 179 218 221 188 164 135 93 75 76 281 187 157 250 189 157 144 113 136 124 117 54 333 244 261 61 144 132 133 135 123 115 112 128 134 134 137 135
357 354 350 346 342 338 335 333 331 330 329 328 327 326 324 323 322 323 321 323 325 324 323 322 322 321 320 318 316 321 328 297 283 257 230 214 193 203 224 247 263 202 155 186 192 182 156 192 212 181 182 209 180 248 156 225 133 106 84 67 250 158 222 187 106 118 104 135 135 160 131 94 228 55 297 204 151 131 132 130 128 112 121 132 136 138 138 139
356 354 352 348 344 340 336 332 330 330 328 327 324 325 325 323 323 322 326 325 325 328 326 325 323 322 317 317 319 327 334 304 268 259 261 229 209 190 211 215 257 157 160 167 207 183 193 194 197 169 189 242 218 184 180 202 87 59 120 56 278 203 160 164 143 152 194 124 128 143 86 117 250 83 12 226 147 141 144 141 128 134 140 146 137 142 142 143
356 355 352 350 345 342 337 333 330 328 327 325 324 323 323 324 324 325 326 328 327 327 329 323 320 319 317 317 320 329 305 280 316 254 250 161 191 195 199 212 218 171 162 170 173 192 287 304 290 188 241 213 244 143 181 206 132 132 67 29 259 126 119 169 147 160 180 158 115 149 203 183 222 142 132 230 140 149 152 155 145 147 150 146 140 143 146 148
355 354 351 349 347 343 339 335 331 329 327 326 324 321 320 321 322 323 325 326 327 327 323 322 320 316 317 310 318 332 311 42 186 235 271 13 179 185 193 193 198 176 165 171 235 285 295 301 333 267 232 242 217 154 203 163 154 101 162 205 244 318 254 162 183 157 151 136 149 151 166 193 118 259 211 205 149 163 157 151 146 146 148 145 144 144 149 150
355 353 351 348 347 345 340 337 333 329 326 325 322 320 319 319 320 320 323 324 326 326 324 323 320 321 316 319 302 282 327 103 287 266 68 47 153 175 180 184 188 160 150 146 164 168 175 242 198 226 220 220 167 172 174 142 140 108 204 208 172 242 235 124 134 129 118 137 158 161 229 138 151 253 174 295 159 151 144 143 145 144 143 144 142 139 146 150
353 351 349 348 345 342 340 337 333 330 326 325 323 321 319 317 317 318 320 324 321 325 325 324 322 321 326 309 266 262 97 275 319 250 147 131 150 157 167 175 163 138 148 144 199 193 193 206 202 223 246 215 198 159 155 138 224 141 129 173 191 314 156 148 140 129 127 135 189 157 101 177 143 175 0 314 143 132 136 139 138 136 138 143 143 146 147 148
351 349 347 345 343 341 339 337 334 330 330 325 322 319 318 317 317 319 319 319 320 320 324 324 322 323 337 341 233 326 83 254 245 241 111 109 126 150 154 150 153 147 157 188 179 202 168 203 213 209 235 191 197 148 160 137 184 98 101 242 63 84 61 123 140 124 162 159 113 97 166 237 146 194 23 219 140 137 136 135 136 139 140 146 144 145 150 156
349 347 345 343 341 340 339 336 334 332 329 326 322 320 316 316 314 314 316 315 315 315 316 318 319 323 336 304 33 351 270 229 232 126 121 122 130 126 132 148 177 160 189 192 208 202 165 238 225 217 238 188 175 134 154 134 229 166 184 164 145 135 142 136 113 131 139 133 138 126 171 229 215 191 54 161 138 136 135 136 138 142 146 147 150 152 160 167
346 345 342 341 339 338 337 334 333 333 331 327 324 321 320 318 316 313 313 312 307 305 307 315 310 332 330 230 352 42 257 257 116 135 140 134 128 136 172 151 165 165 159 210 198 210 211 215 191 213 256 279 175 134 169 175 207 148 121 123 123 71 73 5 133 110 110 108 100 109 257 202 181 160 121 136 136 134 135 137 141 145 149 151 154 164 168 168
344 342 341 339 338 336 335 334 333 332 330 328 324 322 320 316 312 309 304 303 304 302 301 302 320 314 291 213 76 244 261 15 70 118 136 139 137 150 193 178 171 169 185 182 211 208 228 251 282 309 307 232 101 152 156 5 119 109 119 97 79 81 33 25 88 76 114 120 95 215 231 208 141 189 149 146 142 139 138 141 146 148 150 155 160 170 174 167
340 340 339 338 335 333 333 333 333 332 331 328 323 320 315 314 309 306 299 297 298 301 296 283 289 253 257 98 175 231 255 66 75 125 154 157 164 184 184 172 177 183 175 184 218 223 224 238 238 255 248 23 70 118 66 117 87 115 112 103 99 92 109 18 63 75 251 104 325 237 207 90 194 158 153 145 144 143 141 145 148 153 154 158 167 174 176 169
339 337 337 335 334 333 332 333 332 333 330 326 321 316 313 309 307 300 298 293 280 274 276 283 291 248 338 327 229 239 269 284 203 211 213 206 198 180 165 170 185 192 200 188 215 223 224 236 251 250 249 286 151 178 100 93 106 67 29 15 103 95 25 336 342 14 67 350 274 336 150 204 120 165 154 150 146 143 141 146 152 159 158 165 171 174 182 159
337 335 335 334 333 332 332 331 332 331 329 325 320 316 309 304 300 296 293 278 268 263 252 246 230 272 143 243 277 254 273 246 270 185 212 201 188 197 178 186 190 201 209 221 253 276 277 232 233 250 265 198 150 116 88 54 16 90 162 9 279 118 177 345 1 333 92 288 315 347 143 173 142 150 145 152 149 148 147 152 156 161 163 166 175 175 169 157
336 335 333 333 331 330 331 331 331 330 328 326 319 309 303 299 294 286 281 277 252 249 245 235 253 193 10 272 258 268 256 253 271 257 192 188 187 124 218 197 194 207 213 218 232 250 246 264 267 251 254 100 117 103 69 55 54 30 69 336 306 114 91 293 316 339 138 297 354 39 104 124 141 116 87 300 158 152 149 158 161 161 161 168 168 168 157 158
333 330 329 332 331 330 331 331 330 330 327 324 312 300 295 292 279 268 259 247 250 247 310 306 201 228 143 295 266 314 317 138 255 225 239 179 183 192 194 199 201 210 218 247 235 251 256 269 273 213 179 133 124 113 105 74 352 29 85 34 326 30 159 186 298 293 3 24 20 43 150 125 118 165 172 215 191 155 152 158 160 158 163 162 165 157 156 152
330 328 327 329 332 330 330 330 330 330 328 318 307 295 283 272 259 256 267 229 241 194 211 13 112 183 4 234 307 319 266 233 251 231 212 219 189 192 160 187 214 230 227 247 248 255 265 252 261 213 97 137 142 131 91 37 93 298 14 174 130 265 159 182 35 281 32 326 108 3 111 156 155 172 179 208 193 157 155 156 157 158 162 155 162 152 151 157
331 329 327 327 331 332 329 327 330 331 324 319 305 295 285 268 271 306 281 170 217 205 249 266 246 305 272 315 336 306 215 249 184 214 206 220 186 169 161 186 206 208 211 256 261 236 237 221 92 184 22 172 129 123 137 195 178 179 169 133 203 206 215 170 169 206 134 334 146 10 90 78 146 178 192 203 211 156 157 156 157 158 156 156 159 150 149 159
332 330 325 326 328 330 329 326 329 330 330 322 299 285 62 110 53 23 39 146 128 34 30 224 119 92 214 279 266 276 263 196 146 167 180 181 222 170 174 189 188 152 195 174 289 170 267 69 318 89 218 227 188 162 188 213 165 172 175 174 148 161 202 191 209 154 159 141 147 203 156 114 56 187 194 225 226 157 159 154 156 158 156 155 158 154 146 163
332 327 324 325 326 327 325 326 326 330 339 337 350 28 116 9 18 354 8 283 208 229 259 243 197 273 310 289 280 275 286 23 104 229 218 255 180 198 231 174 148 157 139 192 282 226 152 163 187 203 220 213 209 193 198 197 172 150 146 146 171 149 108 98 110 173 207 113 192 183 86 62 197 187 286 313 237 161 157 158 159 162 156 159 159 163 150 170
327 325 323 324 325 318 321 323 321 330 344 337 305 356 330 154 30 334 304 238 218 243 242 233 189 205 224 261 277 298 291 349 36 233 233 196 125 135 232 164 110 202 211 201 188 264 144 164 221 211 214 212 217 216 196 167 145 150 158 158 148 152 150 112 142 172 290 166 174 123 104 151 331 287 300 329 245 173 162 161 161 165 158 160 160 170 160 180
328 324 323 325 322 317 313 316 322 327 336 299 324 327 257 228 215 165 99 315 302 237 222 246 205 241 249 248 258 256 112 233 315 283 274 123 156 143 270 128 150 201 245 230 232 206 183 208 225 221 215 217 233 208 195 155 151 153 153 146 121 112 98 67 59 178 257 349 148 135 133 168 167 238 299 339 290 175 164 165 164 161 160 160 163 173 169 170
329 324 323 325 323 314 313 308 315 328 306 168 97 212 240 234 190 14 42 263 267 281 224 231 243 231 251 249 244 223 207 174 237 291 225 125 128 186 166 139 206 216 221 182 174 171 228 266 237 223 207 211 239 219 201 167 154 140 118 135 178 170 158 145 200 160 124 324 161 134 119 96 21 265 309 305 293 187 125 160 167 164 158 162 171 173 169 170
328 326 322 324 323 318 312 315 302 280 214 220 238 218 247 267 286 9 48 256 288 306 211 235 212 224 237 232 232 164 160 219 156 235 229 139 158 171 140 189 198 211 224 204 186 186 214 227 219 218 211 204 219 214 189 172 175 177 164 154 132 173 223 156 165 134 121 57 83 103 86 70 187 233 286 301 288 87 84 125 171 177 159 163 172 167 165 169
326 324 323 322 326 321 315 313 344 211 201 198 238 244 257 262 251 159 107 316 319 274 246 256 169 217 231 206 68 100 240 294 207 202 181 136 162 123 232 174 124 221 219 216 208 218 247 247 202 217 229 216 215 206 194 183 170 187 212 173 173 175 136 98 131 146 134 138 255 139 146 187 206 219 233 295 297 61 359 147 170 179 166 163 171 169 162 168
324 320 322 323 323 324 304 328 308 340 303 268 254 284 298 315 195 149 114 49 317 269 359 265 100 269 142 199 97 176 106 271 206 196 157 208 170 129 16 274 169 219 227 210 206 209 235 237 179 220 230 226 215 197 199 176 172 156 223 166 150 142 126 135 148 150 158 179 201 202 168 147 189 218 218 224 258 203 332 173 168 171 174 171 174 166 163 166
323 319 319 324 330 333 338 242 334 297 335 298 307 333 320 320 151 165 59 336 342 282 251 244 65 264 262 187 163 82 56 281 299 133 171 216 181 117 157 250 322 280 194 179 204 252 227 210 197 212 224 229 215 217 205 183 143 210 142 126 123 122 140 152 153 138 110 69 101 53 113 135 198 236 205 213 249 260 215 208 176 163 176 179 177 169 166 165
318 317 317 320 333 345 261 324 334 307 240 256 334 330 321 325 321 68 81 46 341 292 136 255 214 316 97 186 106 121 194 205 13 259 188 211 119 40 178 218 203 244 284 348 239 257 200 215 183 203 215 211 215 212 178 178 143 212 135 131 129 135 137 130 94 86 128 126 167 179 72 98 208 253 132 160 231 232 223 206 191 190 194 183 180 173 170 166
314 313 315 317 322 307 238 243 14 249 240 340 327 315 328 317 31 98 111 116 8 244 307 111 258 332 262 67 146 225 233 92 147 225 258 285 258 133 209 236 233 281 267 192 243 284 270 216 206 184 185 213 222 141 143 122 95 83 98 84 88 88 80 82 94 90 72 113 188 181 183 181 231 171 181 184 232 230 212 212 201 190 195 179 189 172 173 165
311 309 310 312 309 166 255 210 232 242 325 324 312 305 316 8 41 30 24 345 151 279 241 262 117 199 164 141 285 231 240 265 181 357 172 183 248 45 214 183 220 285 285 254 222 239 251 266 191 176 191 210 132 138 114 110 107 112 93 92 81 69 73 58 41 66 53 144 265 205 193 185 190 206 192 185 209 200 199 209 213 194 202 202 177 174 173 167
308 301 293 287 221 265 182 295 250 242 251 294 301 302 20 40 101 105 64 234 306 266 259 124 250 96 151 125 220 305 234 151 310 94 344 270 6 95 12 0 2 328 305 316 293 280 283 275 251 216 187 124 126 102 106 112 127 120 110 115 103 50 28 40 357 36 127 233 194 185 196 203 211 217 202 193 137 189 185 199 198 200 199 201 177 182 175 170
305 297 269 196 244 338 179 233 121 24 346 326 329 9 59 21 7 92 247 333 67 278 183 225 218 161 196 182 112 102 232 20 251 141 203 264 157 137 232 197 146 337 329 283 270 325 298 259 235 258 110 123 108 104 108 124 113 98 116 121 107 108 41 0 15 333 195 188 130 213 191 204 233 219 186 186 179 185 212 201 198 193 201 196 185 180 177 172
309 295 256 219 215 243 246 258 343 342 337 337 21 55 61 91 6 263 286 306 279 145 267 180 213 175 129 80 12 36 349 27 325 282 146 195 134 252 221 197 158 155 234 287 336 342 280 269 280 252 121 130 124 117 148 107 175 132 143 164 104 123 86 153 243 230 339 43 43 246 165 221 307 271 179 191 197 189 194 203 207 193 196 194 188 175 177 173
310 304 200 203 203 222 250 346 5 4 3 2 60 30 52 53 284 239 268 226 266 269 310 4 222 142 100 135 192 147 356 317 285 284 72 306 121 273 303 281 200 247 160 294 287 240 302 330 297 194 138 152 127 148 167 152 178 165 150 143 176 152 158 170 170 188 192 186 351 25 145 227 149 258 203 192 187 194 192 194 198 194 15 320 9 230 181 171
314 320 184 191 232 242 240 236 282 335 358 45 41 78 88 242 234 239 297 291 300 324 345 342 14 74 66 76 220 133 147 231 266 354 20 51 313 305 253 294 257 198 104 34 271 34 217 214 248 206 171 154 145 152 147 138 138 206 141 96 108 221 146 134 197 144 151 135 105 224 210 179 193 179 164 173 173 183 179 153 142 152 177 217 245 255 200 177
324 131 184 217 206 259 168 188 167 213 108 54 72 33 192 197 288 185 250 231 301 328 322 358 12 64 27 313 338 64 29 118 359 72 322 41 286 309 289 222 260 138 144 195 208 286 14 306 282 344 7 138 140 155 156 136 143 217 134 225 216 207 121 102 57 65 101 69 256 180 283 273 248 229 172 180 173 188 177 170 162 161 174 189 196 218 246 197
8 283 330 223 231 184 131 146 151 139 76 88 82 313 213 293 206 248 265 314 299 336 38 49 337 46 41 260 297 124 187 113 53 77 318 357 344 274 310 288 260 173 209 158 304 191 143 271 284 310 295 290 151 150 151 172 139 99 292 251 306 60 86 117 134 232 92 134 225 167 235 232 112 279 136 154 175 182 184 181 174 166 163 179 191 193 216 208
317 291 249 261 233 134 131 149 136 85 85 80 199 223 228 237 269 229 273 281 335 26 88 62 288 43 0 63 344 245 15 85 219 64 253 21 275 259 49 287 262 231 72 71 112 283 98 339 294 246 175 227 98 82 21 273 147 152 195 191 158 240 121 36 96 133 156 242 207 248 223 247 192 238 165 186 181 185 184 180 170 167 177 186 195 201 206 214
249 30 340 255 192 137 143 152 99 89 58 27 265 349 246 229 270 290 256 273 46 110 58 311 51 280 157 10 321 10 145 117 138 132 111 229 64 10 347 242 293 339 4 3 60 301 21 223 287 312 146 174 90 92 230 270 304 152 110 176 195 111 157 147 210 150 114 173 77 284 93 255 206 211 186 195 189 179 177 177 179 179 182 191 199 196 194 207
12 37 290 268 127 130 139 133 73 49 80 236 250 236 273 305 288 284 322 352 28 59 322 322 9 14 359 203 41 291 333 97 129 141 120 261 238 290 299 303 293 324 357 53 21 342 318 162 265 303 322 146 161 178 184 204 179 212 72 222 215 258 210 118 127 141 160 159 186 150 292 262 264 210 175 192 181 176 175 174 181 186 187 190 192 196 190 190
302 111 269 273 305 134 123 89 91 179 196 253 215 262 284 269 293 331 18 27 50 205 144 158 44 67 329 16 353 106 317 76 89 114 104 321 166 346 278 181 263 355 347 47 24 333 347 359 353 303 10 18 244 225 176 162 187 176 148 191 177 152 108 141 242 0 112 112 184 135 229 265 268 162 191 181 171 167 176 182 182 189 193 190 188 189 180 181
42 42 263 288 24 133 120 136 226 176 171 238 235 208 261 248 274 298 29 359 101 333 311 119 341 76 29 257 200 356 60 20 151 113 146 146 255 200 267 275 20 159 112 60 272 299 236 190 59 326 303 275 270 280 230 159 200 178 153 212 179 156 126 106 151 254 89 72 121 159 122 287 242 166 183 179 170 172 169 185 193 190 188 189 184 158 148 162
47 216 259 288 299 170 72 209 291 42 235 237 252 253 252 267 219 141 48 356 33 11 359 37 8 48 286 23 4 13 102 168 138 194 183 179 211 206 250 328 307 30 90 346 323 277 335 38 353 313 308 286 300 317 83 121 193 46 241 189 131 178 181 186 179 183 127 177 72 22 228 242 268 200 180 176 175 174 168 173 184 187 193 196 180 166 175 236
272 274 311 287 202 156 226 233 267 270 263 270 259 265 278 276 27 12 61 358 82 349 37 349 349 130 232 248 216 338 168 78 252 143 288 220 203 238 265 41 337 34 82 255 111 285 40 312 97 333 358 338 344 356 1 353 43 30 304 291 207 183 186 176 92 54 105 207 166 126 208 276 283 326 136 155 153 163 174 184 177 175 174 170 171 174 178 170
285 248 234 286 341 121 215 186 174 226 262 278 288 289 319 359 260 165 76 291 2 161 31 339 3 289 355 324 344 8 52 57 248 321 69 22 275 335 13 60 330 40 171 199 126 46 89 233 80 84 62 50 2 349 314 317 310 278 287 326 319 225 205 110 182 63 123 269 124 138 231 258 291 17 119 143 147 155 172 174 178 176 169 165 160 161 153 138
0 29 294 337 345 340 316 297 44 214 277 286 289 284 3 312 313 18 106 354 195 5 133 215 337 40 337 21 31 23 358 26 69 333 28 345 316 350 348 7 16 348 3 5 80 80 250 312 111 155 139 169 215 227 254 218 321 13 342 53 23 6 69 125 120 126 177 188 179 241 176 134 142 125 111 133 145 144 142 152 161 156 173 174 159 153 161 195
309 75 335 334 328 27 350 346 17 6 307 261 255 267 307 272 219 326 304 104 46 82 359 16 202 31 301 44 2 40 7 12 4 48 342 19 305 306 331 28 16 12 3 16 52 89 43 6 300 142 146 203 213 227 263 276 18 11 31 49 24 20 56 98 128 203 195 103 228 346 5 122 123 85 69 96 104 104 110 119 129 145 161 169 170 167 165 172
24 280 69 182 170 283 5 326 354 313 309 279 241 289 316 312 331 167 323 356 152 76 73 325 27 329 116 125 113 45 339 25 31 354 319 2 338 346 13 349 30 352 29 29 20 97 136 2 326 359 356 7 4 25 58 52 75 63 53 57 44 29 36 64 357 89 96 114 161 66 69 62 14 52 57 42 40 63 47 45 34 85 133 158 160 164 175 177
57 311 303 1 70 265 224 265 297 288 305 251 234 206 38 339 318 242 157 86 58 45 77 19 339 54 92 85 87 122 21 51 336 306 0 322 343 4 7 344 324 15 35 22 7 131 83 8 331 31 30 34 3 47 38 104 64 46 31 49 59 49 32 37 60 68 86 91 91 80 69 58 24 29 60 61 75 79 76 70 57 43 24 20 147 171 178 182
13 5 323 346 272 274 271 298 292 314 310 282 21 286 156 189 6 9 20 70 93 351 57 80 337 36 51 60 82 102 178 165 185 267 293 64 325 50 22 200 256 320 42 39 30 336 100 316 357 32 60 23 340 63 75 59 73 63 34 30 56 56 41 25 40 43 78 65 65 68 65 58 14 356 65 65 70 73 63 66 85 94 75 42 13 14 39 47
311 273 313 312 321 274 298 315 328 303 313 328 36 277 54 326 51 166 151 161 118 99 40 56 10 20 26 69 38 29 343 193 348 297 283 297 334 248 87 293 198 319 352 18 18 323 57 332 62 50 52 358 17 313 89 77 73 58 29 14 29 54 49 21 38 354 41 91 71 61 53 27 334 358 56 51 62 65 67 65 54 41 68 107 104 54 17 31
288 280 290 209 257 279 322 307 295 3 347 263 239 252 52 282 197 112 87 332 39 125 108 351 45 87 14 45 25 305 296 327 301 236 236 248 242 268 225 246 83 47 296 354 179 52 40 71 54 40 47 317 316 2 236 67 49 34 6 332 349 62 81 60 42 33 24 52 59 63 83 346 346 333 70 52 62 63 52 28 67 78 73 57 39 87 76 71